2013 Running With A Cold Heart Nov 1-3, 2013

Somervell County Expo Center Glen Rose, Texas For photo Tour click here

To view only the money earners type $ in the search.

To view placings for one event type one of the following in the search…

  • Open
  • Adult
  • Senior
  • Youth
DayEVENTDPLRIDERHORSETIME$DRW
11/1/13Open1D1stTiller MurrayLil Gracies Dude15.083$341.0641
11/1/13Open1D  2ndTiller MurraySay Hello to Goodbye15.158$204.64111
11/1/13Open1D3rdMartha WrightFuel for Cash15.221$136.4392
11/1/13Open1D4thLisa McWorterTJ15.26566
11/1/13Open1D5thJessica PipalYeah Sting Me15.42829
11/1/13Open1D6thHeather LeeperShooter15.46196
11/1/13Open1D7thKortni McConnellFamous Senor George15.55145
11/1/13Open1D8thCheryl BarronMr Jack 16915.5761
11/1/13Open1D9thMartha WrightGoldden Bullion15.5796
11/1/13Open2D1stHeather LeeperSalty15.726$278.8551
11/1/13Open2D2ndJill CrottaWhodky15.731$167.3139
11/1/13Open2D3rdEmma ChapmanJohnny15.732$111.5438
11/1/13Open2D4thRegenia BoothChesters Blue Boy15.74632
11/1/13Open2D5thLeshia KnoxFrogs Aflyin15.76587
11/1/13Open2D6thHeather LewisLil Blu Diamond15.7733
11/1/13Open2D7thCatherine ThompsonCash N Quioxte Lynx15.80537
11/1/13Open2D8thJane IrickBunnys Gotta Pistol15.842157
11/1/13Open2D9thCarli ReynoldsBrazos Moonlit Blaze15.85822
11/1/13Open2D10thKerri WoodallSmashing Nick Bar15.86046
11/1/13Open2D11thJana GuthrieUnbridled Memories15.92313
11/1/13Open2D12thJanice StevensFreckles Tiger Tab15.9357
11/1/13Open2D13thBlair BuchananDoobes Silent Lad15.95081
11/1/13Open2D14thCassidy RhodenCastiron Starlite15.97421
11/1/13Open2D15thAmye CraigKN Fabulous Breeze15.97972
11/1/13Open2D16thCasey DoebblerEMW Gold Heart15.99415
11/1/13Open2D17thJenna Beth BlairKing of Money Too15.99911
11/1/13Open2D18thJill CrottaCL16.00171
11/1/13Open2D19thDanika KentTough Little Flit16.02353
11/1/13Open3D1stAmber BarrettFive Time Ash16.123$227.018
11/1/13Open3D2ndRose BonhamA Midnight High16.136$136.2018
11/1/13Open3D3rdLacy MatthewsIts Best16.173$90.8019
11/1/13Open3D4thShambrae WilliamsGuys Burning Amber16.17831
11/1/13Open3D5thElaine BigbeeSunny on Command16.17914
11/1/13Open3D6thAutumn WoodruffWaggoner Wood16.18736
11/1/13Open3D7thCatherine ThompsonDizzy Moon Express16.278108
11/1/13Open3D8thJo NormanMe Wise Wrangler16.28125
11/1/13Open3D9thMicaela BradleyHeza Streaking Scat Man16.326159
11/1/13Open3D10thBreAnna WalkerNaughty Nikki16.36344
11/1/13Open3D11thKelly CarterBetty B16.382106
11/1/13Open3D12thKerri WoodallDevious Nick Bar16.43891
11/1/13Open3D13thAubry HollifieldM2 Colonel Shadow16.45993
11/1/13Open3D14thCasi GuessRey Guns Smoke16.51633
11/1/13Open3D15thMallory CowgerNational Hero16.51652
11/1/13Open3D16thGiGi RobinsonCatch This Joker16.54035
11/1/13Open4D1stJane IrickFame on Amission16.587$185.5399
11/1/13Open4D2ndTeresa BuschSun Kickapoo Outta You16.588$111.32156
11/1/13Open4D3rdSara DavidsonRattle me Too16.623$74.219
11/1/13Open4D4thLacy MatthewsMF Streakin budlight16.647161
11/1/13Open4D5thSelina NannyBubba Mel16.64858
11/1/13Open4D6thStacy GatesKn Rear Sweet Rythym16.76498
11/1/13Open4D7thTerry Ogle16.78223
11/1/13Open4D8thBlair BuchananNoble Leo Robinhood16.87549
11/1/13Open4D9thZia ThompsonBugs Baby Cat16.9144
11/1/13Open5D1stLeshia KnoxMy Name is Sioux17.145$154.432
11/1/13Open5D2ndPaul HumphreyBug N Up the Charts17.253$92.66147
11/1/13Open5D3rdChristmas MooneyStraw Hat Special17.379$61.7727
11/1/13Open5D4thKaitlin MiestchovichMK Superboots17.496160
11/1/13Open5D5thJill PettyJets Powerstroke17.51743
11/1/13Open5D6thTrenton BallardSouthern Rose Bug17.62024
11/1/13Open5D7thCrystal WillisLeroy17.67810
11/1/13Open5D8thSelina NannyScout17.8195
11/1/13Open5D9thBreAnna WalkerI Be Acting Perky18.166102
11/1/13Open5D10thKelly CarterLightning18.20828
11/1/13Open5D11thCasey BosmaEspecially Suited18.27440
11/1/13Open5D12thConnie MyersRatchett's Snowflake18.78126
11/1/13Open5D13thBrylea FoegelleMaggie19.41048
11/1/13OpenN/TKendra LoganShort Roundnt15.428101
11/1/13OpenN/TMimi CundieffSittin Silvernt15.53742
11/1/13OpenN/TPaul HumphreyBorn Ta Fament15.65217
11/1/13OpenN/TStacey GatesTemptuous Bullynt15.94916
11/1/13OpenN/TKendra LoganIrant16.42947
11/1/13OpenN/TRobin KingCoolatta Rum Barnt16.46030
11/1/13OpenN/TJane IrickFamous Junebugnt16.57554
11/1/13OpenN/TPaul HumphreyPH Firewaters Pay Daynt16.59886
11/1/13OpenN/TKatie DensmoreZnt16.602158
11/1/13OpenN/TLisa Jo VelliquetteX Straw Dynastynt16.701104
11/1/13OpenN/TAnn BarrettFloyd's Diamondnt17.36412
11/1/13OpenN/TJennifer ShoemakeCash Hunornt17.88520
11/1/13OpenN/TBrooke HickeyTriggernt18.03334
11/2/13Open1D1stMartha WrightFuel for Cash14.916$557.43121
11/2/13Open1D2ndMartha WrightBH Dash of Ginger14.940$464.53161
11/2/13Open1D3rdJolene MontgomeryMarthas Sixshooter15.031$394.8555
11/2/13Open1D4thMolli MontgomeryHe Loves Cash15.031$301.9479
11/2/13Open1D5thBrittany JonesHeart Throbs Dream15.053$232.26246
11/2/13Open1D6thJolene MontgomeryDashin Louie15.066$162.582
11/2/13Open1D7thStephanie HarrisRunnin for Honors15.110$116.1387
11/2/13Open1D8thLeslie HarrisonMiss Royal Aister15.127$92.91112
11/2/13Open1D9thWendy SuhnFame On the Rock15.152294
11/2/13Open1D10thCheryl BarronMr Jack 16915.17823
11/2/13Open1D11thStevi HillmanOne Smokin Ride15.18175
11/2/13Open1D12thShambrae WilliamsFallon's Pallenque15.19856
11/2/13Open1D13thTara SchroedterPerkszilla15.254156
11/2/13Open1D14thRegenia BoothChesters Blue Boy15.26657
11/2/13Open1D15thTerri VesterFancy for a Dollar15.299207
11/2/13Open1D16thTauna BertschHandy15.31993
11/2/13Open1D17thJessica PipalYeah Sting Me15.33753
11/2/13Open1D18thJordon BriggsHBS Mayan Gold15.338264
11/2/13Open1D19thMolli MontgomeryRoyal & Famous15.357150a
11/2/13Open1D20thMartha WrightGolden Bullion15.36950
11/2/13Open1D21stWhitney GodinezRenegade Leader15.369194
11/2/13Open1D22ndLena WhiteheadCodys Chilly Nite15.373236
11/2/13Open1D23rdErin ReichEMW Cruisin Nick15.374221
11/2/13Open1D24thHeather LewisLil Blu Diamond15.39115
11/2/13Open1D25thMaggie UptonFlaming Fire Water15.400212
11/2/13Open2D1stTodd BurgerSailors Wing15.428$456.50143
11/2/13Open2D2ndJana GuthrieRedemeer Honeydew15.432$380.42231
11/2/13Open2D3rdCambra SmithKatie15.443$323.3627
11/2/13Open2D4thSara ReddenMaster Jimmy15.453$247.27214
11/2/13Open2D5thJordon BriggsShake it Frenchie15.456$190.21217
11/2/13Open2D6thKerri WoodallSmashing Nick Bar15.457$133.15136
11/2/13Open2D7&8Amye CraigTuffs Flint15.463$85.60183
11/2/13Open2D7&8Hanna HammondFrenchmans Jeenyus15.463$85.60204
11/2/13Open2D9thDeven RigginsEyemora15.47212
11/2/13Open2D10thAmye CraigFabulous Flitnwonder15.486211
11/2/13Open2D11thChris HamblinAg Johnny Fame15.487216
11/2/13Open2D12thRobin KingCoolatta Rum Bar15.529142
11/2/13Open2D13thSammi DuncanCricket15.553134
11/2/13Open2D14thKellen FreundTinky's Blushing15.569118
11/2/13Open2D15thPatton AnnTari Joe Rein15.57114
11/2/13Open2D16thTori FairchildSweet Day to Day15.580155
11/2/13Open2D17thRylee HardinSA Velvet Dual Pep15.585179
11/2/13Open2D18thLeslie HarrisonSpirit Talent15.59339
11/2/13Open2D19thVirgina YoungTiny Bit O Frost15.60472
11/2/13Open2D20thLori MarshFrenchmans Lucy Lou15.61373
11/2/13Open2D21stTasha WelshSadies Slick Chick15.615176
11/2/13Open2D22ndGeorgia MorrisWaterbug In the Bayou15.623110
11/2/13Open2D23rdMindy YoungSpud15.631243
11/2/13Open2D24thAmber BarrettFive Time Ash15.6397
11/2/13Open2D25thMichelle RobinsonHobby Boss Moon15.639225
11/2/13Open2D26thSusan CampbellBills Irish Whiskey15.65271
11/2/13Open2D27thCheyenne WimberlyPats Precious Skakem15.655131
11/2/13Open2D28thErin ReichQuantro Jet15.656277
11/2/13Open2D29thHaley ThorneSuperfly15.66318
11/2/13Open2D30thHaley ThorneBandit15.6644
11/2/13Open2D31stCheyenne WimberlyTruly Nemo15.676181
11/2/13Open2D32ndTamet GouldThe Final Donut15.69084
11/2/13Open2D33rdCasey DoebblerEMW Coco Fame15.697164
11/2/13Open2D34thKelly AllenFirewater Edition15.698163
11/2/13Open2D35thMadie ReederIma Money Water Flit15.70634
11/2/13Open2D36thTodd BurgerCharcole Ette15.710192
11/2/13Open2D37thHanna HammondRT Shadow15.71589
11/2/13Open2D38thJanci HannenPeppy San Chico Boy15.715175
11/2/13Open2D39thWhitney GodinezSLR Swing Grace15.726218
11/2/13Open2D40thCallie DavenportPaco15.727210
11/2/13Open2D41stTaylor SimpsonBC Cold as Ice15.734140
11/2/13Open2D42ndHolly SieperdaHank Yellow Fuel15.741130
11/2/13Open2D43rdJessica HarrisRoyal China Gold15.75121
11/2/13Open2D44thJenna Beth BlairKing of Money Too15.75565
11/2/13Open2D45thIvy HurstHoly Exclusive Leo15.757230
11/2/13Open2D46thPeggy HallButler15.784123
11/2/13Open2D47thHeather LeeperSalty15.798137
11/2/13Open2D48thDerece JonesDragon Flame15.800133
11/2/13Open2D49thTasha WelshRTF Easy on my Heart15.802147
11/2/13Open2D50thBeverly BoggsFrench Tuff Wonder15.802226
11/2/13Open2D51stTammi FillingimHAH Rodeo Man15.80842
11/2/13Open2D52ndMaggie UptonBit of Flame An Fire15.809139
11/2/13Open2D53rdAmye CraigKN Fabulous Breeze15.817135
11/2/13Open2D54thCassidy RhodenCastiron Starlite15.82162
11/2/13Open2D55thAlyssa ClayCardinal of the Kremiln15.82374
11/2/13Open2D56thJanice StephensFreckles Tiger Tab15.83210
11/2/13Open2D57thCasey DoebblerEMW Gold Heart15.83649
11/2/13Open2D58thKallie FoxA Badgerin Wrangler15.839190
11/2/13Open2D59thLisa WellingMr Apache Dash15.865152
11/2/13Open2D60thLeshia KnoxFrog's A Flying15.86730
11/2/13Open2D61stJaycie DavisonSkeeter15.869195
11/2/13Open2D62ndBillie Ann SextonBarny15.875166
11/2/13Open2D63rdKerri WoodallDevious Nick Bar15.887191
11/2/13Open2D64thStephanie SnazukFly15.907229
11/2/13Open2D65thRoxie TewBest Credit my Feathers15.907240
11/2/13Open2D66thTasha WelshSadies Dashers Delbert15.909193
11/2/13Open3D1stLeesa JohnsonChamp's Best Money15.942$372.40203
11/2/13Open3D2ndElizabeth ScottCW Duallys My Dad15.964$310.33247
11/2/13Open3D3rdDakota LongJazboo15.979$263.78116
11/2/13Open3D4thPriscilla EstesShawnee15.981$201.72235
11/2/13Open3D5&6Ashley SouthardRingo15.983$131.90162
11/2/13Open3D5&6Alicia ChildersTibbitt15.983$131.90219
11/2/13Open3D7thLibby GaleAR Cowboy Up16.002$77.58209
11/2/13Open3D8thChandler FletcherTeardrop Surprise16.004$62.0791
11/2/13Open3D9thJennifer AbbottWendell Jackson16.01399
11/2/13Open3D10thAubry HollifieldM2 Colonel Shadow16.02559
11/2/13Open3D11thBarbara HardistyYellowstone16.042149
11/2/13Open3D12thTeresa McClendonBailey Doc Malbec16.046120
11/2/13Open3D13thAutumn WoodruffWaggoner Wood16.048126
11/2/13Open3D14thElaine BigbeeSunny on Command16.052159
11/2/13Open3D15thHeidy SieperdaSinfully Sassy16.053129
11/2/13Open3D16thTamet GouldLucky Jet Wars16.05947
11/2/13Open3D17thDenny RallsShine16.07126
11/2/13Open3D18thChery PinkstonBullys Whiskey Girl16.082250
11/2/13Open3D19thMichelle RobinsonNice Smooth Diamond16.109257
11/2/13Open3D20thStacy MillerKatie16.141199
11/2/13Open3D21stDee TuckerHollywood16.146248
11/2/13Open3D22ndTasha WelshFishin Fast16.152202
11/2/13Open3D23rdJanci HannenMade in China16.152232
11/2/13Open3D24thTara BeardenWMB Cash for injun16.16024
11/2/13Open3D25thCarli ReynoldsBrazos Moonlit Blaze16.16660
11/2/13Open3D26thGlenda ThompsonKCPassum up Firewater16.167108
11/2/13Open3D27thSara DavidsonRattle me Too16.17364
11/2/13Open3D28thMystie MoorePlain Old Southern16.17635
11/2/13Open3D29thCheyenne DavisRP Lena Pep16.197153
11/2/13Open3D30thCourtney WorthingtonRosie O Bubbles16.202276
11/2/13Open3D31stJessica NalderCrown16.206244
11/2/13Open3D32ndKimberly Marshall16.21631
11/2/13Open3D33rdNicole StagemanThis Chick Digs It16.2216
11/2/13Open3D34thGlenda ThompsonKC Firewater Star16.227205
11/2/13Open3D35thChristina TronBig Smoke Two16.25145
11/2/13Open3D36thBrigitte BarbierNo Show Roany16.263102
11/2/13Open3D37thLacy MatthewsIts Best16.27863
11/2/13Open3D38thJessica FieldsStreaks Last Kiss16.302128
11/2/13Open3D39thErin JonesHarris Dream16.329109
11/2/13Open3D40thLynn SaundersSophie16.36833
11/2/13Open3D41stCorbin PinyanMiss Papa Reed16.385115
11/2/13Open3D42ndEmber StewartShaedons Dasher16.391255
11/2/13Open3D43rdTori JonesCeelita Belle Peppy16.393258
11/2/13Open3D44thDee TuckerBugsy16.396103
11/2/13Open4D1stSelina NannyBubba Mel16.416$305.1196
11/2/13Open4D2ndBecky SouthlandSassy16.434$254.2637
11/2/13Open4D3rdJennifer CurrieSmartest Glo Chick16.435$216.12184
11/2/13Open4D4thJo NormanMe Wise Wrangler16.452$165.2748
11/2/13Open4D5thCassandra HairstonZans Diamond Sunray16.461$127.1328
11/2/13Open4D6thBayli GregoryBurberry16.474$88.99259
11/2/13Open4D7thAlicia JonesTurbo Tool16.481$63.57178
11/2/13Open4D8thSabrina LeeThirty Aught Six16.488$50.85224
11/2/13Open4D9thJeaneal PresleyAdios Cosmos16.489111
11/2/13Open4D10thJill PettyJets Powerstroke16.513138
11/2/13Open4D11thJessica FieldsEbby16.52440
11/2/13Open4D12thKristin DormanStormy16.524238
11/2/13Open4D13thGiGi RobinsonCatch This Joker16.537125
11/2/13Open4D14thTeresa BuschSun Kickapoo Outta You16.5583
11/2/13Open4D15thJennifer AbbottShakem Otis 12316.558197
11/2/13Open4D16thCasi GuessRey Guns Smoke16.57858
11/2/13Open4D17thCharmaine NewkirkFrenchmans Madam Bella16.667222
11/2/13Open4D18thElaine BigbeeTurfs Sugar Lady16.70466
11/2/13Open4D19thBrynn DenneyCause Sheza Rebel16.713146
11/2/13Open4D20thHolly SmithPick up the Corona16.720187
11/2/13Open4D21stTracy HendersonMo Betta Blues16.720245
11/2/13Open4D22ndLaurna BaconRoscoe16.724256
11/2/13Open4D23rdZia ThompsonBugs Baby Cat16.75352
11/2/13Open4D24thLeshia KnoxMy Name is Sioux16.780157
11/2/13Open4D25thRegina FlorenceDiesel16.781170
11/2/13Open4D26thHolly SmithDot Texas Style16.797105
11/2/13Open4D27thEileen WallA Mity Heart16.8339
11/2/13Open4D28thAlicia BaconBig Genuine Wonder16.834241
11/2/13Open4D29thTerri VesterThe Nick of Tyme16.901100
11/2/13Open4D30thTianti CarterCowboy16.911201
11/2/13Open4D31stAnne ScottGrays Jay Tee16.912249
11/2/13Open5D1stMariele ReederDaizy16.926$254.6529
11/2/13Open5D2ndNitzana SolbergTucker16.949$212.2186
11/2/13Open5D3rdDeborah BaxleyCody16.951$180.3825
11/2/13Open5D4thChery PinkstonGlitter16.954$137.94267
11/2/13Open5D5thDee TuckerDiva16.963$106.11169
11/2/13Open5D6thNikki CashPies Derby Dreaming16.966$74.2713
11/2/13Open5D7thKristian BoegnerMr Magik Man16.974$53.05177
11/2/13Open5D8thEileen WallA Magic Storm16.979$42.4478
11/2/13Open5D9thAnnie FloryStockton16.99916
11/2/13Open5D10thMegan VincikHoldin on Ta Fame17.001215
11/2/13Open5D11thGretchen GoedekenFine Whatever17.02990
11/2/13Open5D12thGloria FurrhQuickory Charge17.031107
11/2/13Open5D13thStephanie SnazukSwagger17.125145
11/2/13Open5D14thTasha WelshSadies Too Many Shoes17.130158
11/2/13Open5D15thKristian BoegnerJBS Money Maker17.136150
11/2/13Open5D16thSydney HarrisChina King Bandicoot17.1388
11/2/13Open5D17thJennifer ShoemakeCash Hunor17.13861
11/2/13Open5D18thCheyenne HarrisIra17.193141
11/2/13Open5D19thReagan MaplesSusie17.229220
11/2/13Open5D20thTy HeathDirty Girl17.27176
11/2/13Open5D21stSelina NannyScout17.29517
11/2/13Open5D22ndKaren HolmesScooby17.31543
11/2/13Open5D23rdLacy MatthewsMF Streakin budlight17.350174
11/2/13Open5D24thKaren RegoEchos Runaway Bay17.38036
11/2/13Open5D25thKaitlin MiestchovichMK Superboots17.395185
11/2/13Open5D26thCrystal WillisLeroy17.43269
11/2/13Open5D27thWaynella JeffcoatFreckles N Dasher17.43741
11/2/13Open5D28thChristy KreiterReba17.521254
11/2/13Open5D29thLauren HinojosaStoreme Some Cash17.534119
11/2/13Open5D30thBrigitte BarbierThree Jack Hancock17.580208
11/2/13Open5D31stJennifer SkinnerMiss Smokem Freckles17.608148
11/2/13Open5D32ndHeather HeathKittys Smoky Hammer17.675234
11/2/13Open5D33rdTrenton BallardSouthern Rose Bug17.69254
11/2/13Open5D34thChris HamblinRed Skysat Night17.73997
11/2/13Open5D35thAnnie FloryScooter17.7501
11/2/13Open5D36thMelanie SelfOle Mans Aloha18.10677
11/2/13Open5D37thTandra WoodardSans Wind DJ18.24332
11/2/13Open5D38thLeslie GillyAlmosta threechick18.29167
11/2/13Open5D39thBrylea FoegelleAggie18.402239
11/2/13Open5D40thAlexis Ray LynchJesse18.51594
11/2/13Open5D41stJordon BriggsA Special Colour18.531189
11/2/13Open5D42ndLindy BledsueSandy Stones19.925251
11/2/13OpenN/TMadison ReichGusnt82
11/2/13OpenN/TCathy Cahillnt122
11/2/13OpenN/TCatherine ThompsonCash N Quioxte Lynxnt132
11/2/13OpenN/TEmily YoungLaredont154
11/2/13OpenN/TLibby GaleJudge the Starsnt160
11/2/13OpenN/TSherry MlakarJess Datingnt188
11/2/13OpenN/TJennifer SkinnerCrown Royal Rockstarnt196
11/2/13OpenN/TCatherine ThompsonDizzy Moon Expressnt213
11/2/13OpenN/TKelly AllenHeza Cocky Catnt14.863228
11/2/13OpenN/TTara SchroedterSS Sabra Noxnt15.048237
11/2/13OpenN/TStevi HillmanLK Gun Shownt15.106113
11/2/13OpenN/TCallie DavenportFames Golden Ticketnt15.374173
11/2/13OpenN/TTara SchroedterEase De Hanknt15.39470
11/2/13OpenN/TCallie DavenportTBR Bootcampnt15.455242
11/2/13OpenN/TKelly TovarGrateful Dudent15.459172
11/2/13OpenN/TMacee SteiglederOn The Red Pennynt15.460104
11/2/13OpenN/TLeshia KnoxFrench Doll Editionnt15.57798
11/2/13OpenN/TTammy RokusFlame on Emmant15.608200
11/2/13OpenN/TTianti CarterWillient15.615252
11/2/13OpenN/TPriscilla EstesDawsonnt15.628362
11/2/13OpenN/TCharmaine NewkirkRoping the Cashnt15.692168
11/2/13OpenN/TKen EnglishBS Merri Me Famousnt15.71081
11/2/13OpenN/TWendy SuhnShe B Astreakinnt15.794206
11/2/13OpenN/TDebbie GallawayDocs Quik Nipnt15.933227
11/2/13OpenN/TKim UlbrichtCorona N Cashnt15.955165
11/2/13OpenN/TDevon ClickHonor Rosies Moneynt15.959124
11/2/13OpenN/TCallee WellingZippynt15.986182
11/2/13OpenN/TLaurna BaconRollernt15.992233
11/2/13OpenN/TDi CrossSon of a Gunnt16.025167
11/2/13OpenN/TLeesa JohnsonJack's Martinint16.03588
11/2/13OpenN/TNancy GreenMr JB 0727nt16.039266
11/2/13OpenN/TJana GuthrieTwisted Sisternt16.116127
11/2/13OpenN/TLori MarshFrenchmans Go Flitnt16.12620
11/2/13OpenN/TJaydenn HeathTop Sonny Wranglernt16.133101
11/2/13OpenN/TChali PinkstonGo Find a Burgernt16.238261
11/2/13OpenN/THeather LeeperShooternt16.299186
11/2/13OpenN/TKate MoteRosynt16.325180
11/2/13OpenN/TCourtney Mae FleetNon Stop Nicknt16.358144
11/2/13OpenN/TNancy HeathThe Jewelistnt16.44595
11/2/13OpenN/TMegan VincikDashing side Windernt16.48892
11/2/13OpenN/TJens RudibaughPaint me Pokeynt16.554151
11/2/13OpenN/TTara BeardenPerks Native Victorynt16.588106
11/2/13OpenN/TJana GuthrieUnbridled Memoriesnt16.602171
11/2/13OpenN/TBlake MyersSniponitant16.62138
11/2/13OpenN/TNancy MillerTednt16.675223
11/2/13OpenN/TJody RichardsRomeont16.72919
11/2/13OpenN/TMiki SolbergCJS Fancy Dollnt16.86985
11/2/13OpenN/TAnn BarrettFloyd's Diamondnt17.0245
11/2/13OpenN/TLorena SherlockBTB Star B Driftennt17.884117
11/2/13OpenN/TCassidy JeffcoatBentlynt18.32944
11/2/13OpenN/TAlexis Ray LynchAshesnt18.69322
11/2/13OpenN/TChristmas MooneyStraw Hat Specialnt19.39580
11/2/13OpenN/TAudrey DiazSmartynt21.07946
11/2/13OpenN/TMegan MeadowsStarskySCR11
11/2/13OpenN/TDale MolfettoDual San PitchforkSCR51
11/2/13OpenN/TMegan MeadowsPawnshopSCR68
11/2/13OpenN/TPatton AnnJackie Joe WellsSCR83
11/2/13OpenN/TLauren RileyTigerSCR198
11/2/13OpenN/TLauren RileySCR253
11/2/13Youth1D1stLena WhiteheadCodys Chilly Nite  15.373$67.50236
11/2/13Youth1D2ndJana GuthrieRedemeer Honeydew  15.432$40.50231
11/2/13Youth1D3rdHanna HammondFrenchmans Jeenyus15.463$27.00204
11/2/13Youth1D4thPatton AnnTari Joe Rein15.57114
11/2/13Youth1D5thTori FairchildSweet Day to Day15.580155
11/2/13Youth1D6thRylee HardinSA Velvet Dual Pep15.585179
11/2/13Youth1D7thHanna HammondRT Shadow15.71589
11/2/13Youth1D8thCallie DavenportPaco15.727210
11/2/13Youth1D9thTaylor SimpsonBC Cold as Ice15.734140
11/2/13Youth1D10thCassidy RhodenCastiron Starlite15.82162
11/2/13Youth1D11thAlyssa ClayCardinal of the Kremiln15.82374
11/2/13Youth2D1stChandler FletcherTeardrop Surprise  16.004$67.5091
11/2/13Youth2D2ndAubry HollifieldM2 Colonel Shadow  16.025$40.5059
11/2/13Youth2D3rdAutumn WoodruffWaggoner Wood16.048$27.00126
11/2/13Youth2D4thCarli ReynoldsBrazos Moonlit Blaze16.16660
11/2/13Youth3D1stCorbin PinyanMiss Papa Reed  16.385$67.50115
11/2/13Youth3D2ndBayli GregoryBurberry16.474$40.50259
11/2/13Youth3D3rdTianti CarterCowboy16.911$27.00201
11/2/13Youth3D4thMariele ReederDaizy16.92629
11/2/13Youth3D5thNitzana SolbergTucker16.94986
11/2/13Youth4D1stLauren HinojosaStoreme Some Cash  17.534$67.50119
11/2/13Youth4D2ndTrenton BallardSouthern Rose Bug  17.692$40.5054
11/2/13Youth4D3rdBrylea FoegelleAggie18.402$27.00239
11/2/13Youth4D4thAlexis Ray LynchJesse18.51594
11/2/13YouthN/TMadison ReichGusnt82
11/2/13YouthN/TCallie DavenportFames Golden Ticketnt15.374  173
11/2/13YouthN/TCallie DavenportTBR Bootcampnt15.455242
11/2/13YouthN/TMacee SteiglederOn The Red Pennynt15.460104
11/2/13YouthN/TTianti CarterWillient15.615252
11/2/13YouthN/TJana GuthrieTwisted Sisternt16.116127
11/2/13YouthN/TJaydenn HeathTop Sonny Wranglernt16.133101
11/2/13YouthN/TJana GuthrieUnbridled Memoriesnt16.602171
11/2/13YouthN/TMiki SolbergCJS Fancy Dollnt16.86985
11/2/13YouthN/TCassidy JeffcoatBentlynt18.32944
11/2/13YouthN/TAlexis Ray LynchAshesnt18.69322
11/2/13YouthN/TPatton AnnJackie Joe WellsSCR83
11/2/13Adult1D1&2Jolene MontgomeryMarthas Sixshooter  15.031$60.0055
11/2/13Adult1D1&2Molli MontgomeryHe Loves Cash15.031$60.0079
11/2/13Adult1D3rdBrittany JonesHeart Throbs Dream  15.053246
11/2/13Adult1D4thJolene MontgomeryDashin Louie  15.0662
11/2/13Adult1D5thJessica PipalYeah Sting Me  15.33753
11/2/13Adult1D6thMolli MontgomeryRoyal & Famous15.357150a
11/2/13Adult1D7thWhitney GodinezRenegade Leader15.369194
11/2/13Adult1D8thTodd BurgerSailors Wing15.428143
11/2/13Adult1D9thSara ReddenMaster Jimmy15.453214
11/2/13Adult1D10thDeven RigginsEyemora15.47212
11/2/13Adult2D1stKellen FreundTinky's Blushing  15.569$72.00118
11/2/13Adult2D2ndSusan CampbellBills Irish Whiskey15.652$48.0071
11/2/13Adult2D3rdCasey DoebblerEMW Coco Fame  15.697164
11/2/13Adult2D4thKelly AllenFirewater Edition  15.698163
11/2/13Adult2D5thMadie ReederIma Money Water Flit15.70634
11/2/13Adult2D6thTodd BurgerCharcole Ette  15.710192
11/2/13Adult2D7thWhitney GodinezSLR Swing Grace15.726218
11/2/13Adult2D8thCasey DoebblerEMW Gold Heart15.83649
11/2/13Adult2D9thElizabeth ScottCW Duallys My Dad15.964247
11/2/13Adult2D10thJennifer AbbottWendell Jackson16.01399
11/2/13Adult3D1stMystie MoorePlain Old Southern16.176$72.0035
11/2/13Adult3D2ndCheyenne DavisRP Lena Pep16.197$48.00153
11/2/13Adult3D3rdSabrina LeeThirty Aught Six16.488224
11/2/13Adult3D4thJennifer AbbottShakem Otis 12316.558197
11/2/13Adult3D5thBrynn DenneyCause Sheza Rebel16.713146
11/2/13Adult3D6thAlicia BaconBig Genuine Wonder16.834241
11/2/13Adult4D1stTy HeathDirty Girl17.271$60.0076
11/2/13AdultN/TCatherine ThompsonCash N Quioxte Lynxnt132
11/2/13AdultN/TCatherine ThompsonDizzy Moon Expressnt213
11/2/13AdultN/TKelly AllenHeza Cocky Catnt14.863228
11/2/13AdultN/TKelly TovarGrateful Dudent15.459172
11/2/13AdultN/TJens RudibaughPaint me Pokeynt16.554151
11/2/13Senior1D1stMartha WrightFuel for Cash14.916$75.00121
11/2/13Senior1D2ndMartha WrightBH Dash of Ginger14.940$45.00161
11/2/13Senior1D3rdStephanie HarrisRunnin for Honors15.110$30.0087
11/2/13Senior1D4thLeslie HarrisonMiss Royal Aister  15.127112
11/2/13Senior1D5thCheryl BarronMr Jack 16915.17823
11/2/13Senior1D6thRegenia BoothChesters Blue Boy15.26657
11/2/13Senior1D7thMartha WrightGolden Bullion15.36950
11/2/13Senior2D1stAmye CraigTuffs Flint15.463$75.00183
11/2/13Senior2D2ndAmye CraigFabulous Flitnwonder15.486$45.00211
11/2/13Senior2D3rdChris HamblinAg Johnny Fame  15.487$30.00216
11/2/13Senior2D4thLeslie HarrisonSpirit Talent15.59339
11/2/13Senior2D5thTamet GouldThe Final Donut15.69084
11/2/13Senior2D6thJenna Beth BlairKing of Money Too15.75565
11/2/13Senior2D7thTammi FillingimHAH Rodeo Man15.80842
11/2/13Senior2D8thAmye CraigKN Fabulous Breeze  15.817135
11/2/13Senior2D9thJanice StephensFreckles Tiger Tab15.83210
11/2/13Senior3D1stLeesa JohnsonChamp's Best Money  15.942$75.00203
11/2/13Senior3D2ndBarbara HardistyYellowstone16.042$45.00149
11/2/13Senior3D3rdTeresa McClendonBailey Doc Malbec16.046$30.00120
11/2/13Senior3D4thElaine BigbeeSunny on Command16.052159
11/2/13Senior3D5thTamet GouldLucky Jet Wars16.05947
11/2/13Senior3D6thDenny RallsShine16.07126
11/2/13Senior3D7thGlenda ThompsonKCPassum up Firewater16.167108
11/2/13Senior3D8thKimberly Marshall  16.21631
11/2/13Senior3D9thElaine BigbeeTurfs Sugar Lady16.70466
11/2/13Senior3D10thTracy HendersonMo Betta Blues16.720245
11/2/13Senior3D11thLaurna BaconRoscoe16.724256
11/2/13Senior3D12thAnne ScottGrays Jay Tee16.912249
11/2/13Senior4D1stDeborah BaxleyCody16.951$75.0025
11/2/13Senior4D2ndGloria FurrhQuickory Charge17.031$45.00107
11/2/13Senior4D3rdWaynella JeffcoatFreckles N Dasher17.437$30.0041
11/2/13Senior4D4thChris HamblinRed Skysat Night17.73997
11/2/13Senior4D5thMelanie SelfOle Mans Aloha18.10677
11/2/13Senior4D6thLindy BledsueSandy Stones19.925251
11/2/13SeniorN/TCathy Cahillnt122
11/2/13SeniorN/TKen EnglishBS Merri Me Famousnt15.71081
11/2/13SeniorN/TKim UlbrichtCorona N Cashnt15.955165
11/2/13SeniorN/TLaurna BaconRollernt15.992233
11/2/13SeniorN/TLeesa JohnsonJack's Martinint16.03588
11/3/13Open1D1stIvy HurstTys Luck Star14.866$553.65241
11/3/13Open1D2ndRyann PedoneConfederate Bullet14.868$461.38148
11/3/13Open1D3rdWendy SuhnFame On the Rock14.998$392.1784
11/3/13Open1D4thRyann Pedonebratwheresyoursocks15.003$299.8982
11/3/13Open1D5thTodd BurgerSailors Wing15.103$230.69161
11/3/13Open1D6thMolli MontgomeryRoyal & Famous15.105$161.4892
11/3/13Open1D7thHanna HammondFrenchmans Jeenyus15.120$115.3444
11/3/13Open1D8thTara SchroedterEase De Hank15.138$92.2855
11/3/13Open1D9thCheryl BarronMr Jack 16915.14416
11/3/13Open1D10thTara SchroedterSS Sabra Nox15.172172
11/3/13Open1D11thRobin KingCoolatta Rum Bar15.180109
11/3/13Open1D12thJordon BriggsA Special Colour15.192164
11/3/13Open1D13thJordon BriggsShake it Frenchie15.223203
11/3/13Open1D14thBrittany JonesHeart Throbs Dream15.257207
11/3/13Open1D15thHanna HammondRT Shadow15.261134
11/3/13Open1D16thJana GuthrieRedemeer Honeydew15.269156
11/3/13Open1D17thMolli MontgomeryHe Loves Cash15.27060
11/3/13Open1D18thKristie PetersonJimmies Frenchman15.288204
11/3/13Open1D19thTamet GouldThe Final Donut15.305106
11/3/13Open1D20thTaylor SimpsonBC Cold as Ice15.312206
11/3/13Open1D21stTara SchroedterPerkszilla15.324124
11/3/13Open1D22ndSissy PenningtonLast Call Ta Fame15.329245
11/3/13Open1D23rdTibba SmithTurbo15.357223
11/3/13Open2D1stShambrae WilliamsFallon's Pallenque15.372$453.4852
11/3/13Open2D2ndTasha WelshSadies Too Many Shoes15.398$377.90120
11/3/13Open2D3rdGlenna LavenderSecond Chance Tex15.434$321.22235
11/3/13Open2D4thPatton Ann LynchJackie Joe Wells15.437$245.6471
11/3/13Open2D5thSammi DuncanCricket15.455$188.9580
11/3/13Open2D6thRegenia BoothChesters Blue Boy15.458$132.2751
11/3/13Open2D7thNicole RiggleShoeless Joe Biankus15.464$94.48259
11/3/13Open2D8thErin ReichQuantro Jet15.469$75.58262
11/3/13Open2D9thHaley ThorneSuperfly15.47719
11/3/13Open2D10thLena WhiteheadCodys Chilly Nite15.478185
11/3/13Open2D11thCambra SmithKatie15.47912
11/3/13Open2D12thSusan CampbellBills Irish Whiskey15.480123
11/3/13Open2D13thGeorgia MorrisWaterbug In the Bayou15.485129
11/3/13Open2D14thHeather LewisLil Blu Diamond15.4918
11/3/13Open2D15thJanci HannenPeppy San Chico Boy15.499160
11/3/13Open2D16thTammi FillingimHAH Rodeo Man15.50634
11/3/13Open2D17thJordon BriggsHBS Mayan Gold15.507253
11/3/13Open2D18thTasha WelshIma Royal Design15.509268
11/3/13Open2D19thWhitney GodinezRenegade Leader15.517217
11/3/13Open2D20thKelly TovarGrateful Dude15.53172
11/3/13Open2D21stBillie Ann SextonBarny15.544214
11/3/13Open2D22ndVirgina YoungTiny Bit O Frost15.548122
11/3/13Open2D23rdAmye CraigTuffs Flint15.557196
11/3/13Open2D24thStephanie SnazukFly15.562112
11/3/13Open2D25thJill CrottaCL15.563219
11/3/13Open2D26thLeesa JohnsonChamp's Best Money15.582137
11/3/13Open2D27thPriscilla EstesDawson15.584242
11/3/13Open2D28thKortni McConnellFamouts Senor George15.59585
11/3/13Open2D29&30Kelly AllenFirewater Edition15.597157
11/3/13Open2D29&30Dawn FaulknerJax Too Short15.597250
11/3/13Open2D31stJessica HarrisRoyal China Gold15.60527
11/3/13Open2D32ndEva BlantonDualtastic15.607180
11/3/13Open2D33rdErin ReichEMW Cruisin Nick15.620212
11/3/13Open2D34thTammy RokusFlame on Emma15.624167
11/3/13Open2D35thJana KuroskyM an M Rare Fol15.62643
11/3/13Open2D36thMaggie UptonFlaming Fire Water15.628173
11/3/13Open2D37thMaggie UptonBit of Flame An Fire15.63894
11/3/13Open2D38thSadye SimpsonRingo15.642234
11/3/13Open2D39thLisa WellingMr Apache Dash15.648182
11/3/13Open2D40&41Sara ReddenMaster Jimmy15.6506
11/3/13Open2D40&41Jane IrickFame on Amission15.650220
11/3/13Open2D42ndLibby GaleAR Cowboy Up15.658202
11/3/13Open2D43&44Michelle RobinsonHobby Boss Moon15.663183
11/3/13Open2D43&44Whitney GodinezSLR Swing Grace15.663258
11/3/13Open2D45thCassidy RhodenCastiron Starlite15.679135
11/3/13Open2D46thDonna RamseyBBs Royal Dream15.690236
11/3/13Open2D47thTasha WelshFishin Fast15.712192
11/3/13Open2D48thTasha WelshGuys Streakin Angel15.719229
11/3/13Open2D49thDeven RigginsEyemora15.72423
11/3/13Open2D50thBrigitte BarbierThree Jack Hancock15.745131
11/3/13Open2D51stJenna Beth BlairKing of Money Too15.764125
11/3/13Open2D52ndHolly SieperdaHank Yellow Fuel15.76565
11/3/13Open2D53&54Patton Ann LynchTari Joe Rein15.7775
11/3/13Open2D53&54Dakota LongJazboo15.777147
11/3/13Open2D55thDee TuckerHollywood15.789176
11/3/13Open2D56thKellen FreundTinky's Blushing15.802139
11/3/13Open2D57thLeshia KnoxFrog's A Flying15.81926
11/3/13Open2D58thTracy HendersonMo Betta Blues15.825194
11/3/13Open2D59thTasha WelshSadies Dashers Delbert15.831171
11/3/13Open2D60thDevon ClickHonor Rosies Money15.85475
11/3/13Open2D61stAlyssa ClayCardinal of the Kremiln15.862121
11/3/13Open3D1stCassandra HairstonZans Diamond Sunray15.875$370.0125
11/3/13Open3D2ndKate MoteRosy15.888$308.34163
11/3/13Open3D3rdJaycie DavisonSkeeter15.901$262.09228
11/3/13Open3D4thTasha WelshRTF Easy on my Heart15.909$200.42100
11/3/13Open3D5thIvy HurstHoly Exclusive Leo15.916$154.17184
11/3/13Open3D6thBrigitte BarbierNo Show Roany15.922$107.9261
11/3/13Open3D7thAubry HollifieldM2 Colonel Shadow15.926$77.08136
11/3/13Open3D8thMelissa BerryCowboy Up Charge15.929$61.67224
11/3/13Open3D9thBrenda PowellNonstop Moonshine15.935226
11/3/13Open3D10thTammy NailSpect O Wonder15.96839
11/3/13Open3D11thDanika KentTough Little Flit15.973243
11/3/13Open3D12&13Autumn WoodruffWaggoner Wood15.987151
11/3/13Open3D12&13Todd BurgerCharcole Ette15.987191
11/3/13Open3D14thHaley ThorneBandit15.9901
11/3/13Open3D15thPeggy HallButler15.991199
11/3/13Open3D16thElaine BigbeeSunny on Command16.02863
11/3/13Open3D17thPriscilla EstesShawnee16.029189
11/3/13Open3D18thDebbie GallawayDocs Quik Nip16.030186
11/3/13Open3D19thLeshia KnoxFrench Doll Edition16.04095
11/3/13Open3D20thJaydenn HeathTop Sonny Wrangler16.04191
11/3/13Open3D21stSara DavidsonRattle me Too16.057117
11/3/13Open3D22ndStephanie SnazukSwagger16.065158
11/3/13Open3D23rdLacy MatthewsIts Best16.074126
11/3/13Open3D24thTamet GouldLucky Jet Wars16.09746
11/3/13Open3D25thDee TuckerBugsy16.09858
11/3/13Open3D26thKimberly MarshallSassy16.09928
11/3/13Open3D27thJason NelsonEl Valentino16.119230
11/3/13Open3D28thMegan MeadowsStarsky16.12617
11/3/13Open3D29thJanice StephensFreckles Tiger Tab16.12713
11/3/13Open3D30thElizabeth ScottCW Duallys My Dad16.145190
11/3/13Open3D31stTeresa McClendonBailey Doc Malbec16.154140
11/3/13Open3D32ndMegan VincikDashing side Winder16.17269
11/3/13Open3D33rdJennifer AbbottWendell Jackson16.173144
11/3/13Open3D34thEmber StewartShaedons Dasher16.175210
11/3/13Open3D35thJana KuroskyHat Si Haidan Watch16.18989
11/3/13Open3D36thMandi BoedekerMr JB082916.19748
11/3/13Open3D37thDi CrossSon of a Gun16.199188
11/3/13Open3D38thHeidy SieperdaSinfully Sassy16.20797
11/3/13Open3D39thGlenda ThompsonKCPassum up Firewater16.22062
11/3/13Open3D40&41Lori MarshFrenchmans Go Flit16.2224
11/3/13Open3D40&41Courtney WorthingtonRosie O Bubbles16.222174
11/3/13Open3D42ndCarli ReynoldsBrazos Moonlit Blaze16.227118
11/3/13Open3D43rdGlenda ThompsonKC Firewater Star16.228104
11/3/13Open3D44thTerri VesterThe Nick of Tyme16.23183
11/3/13Open3D45thTerry WeeksCash on the Button16.23540
11/3/13Open3D46thKristin DormanStormy16.252193
11/3/13Open3D47thAshley SouthardRingo16.257175
11/3/13Open3D48thLindy BledsueSandy Stones16.308251
11/3/13Open3D49thNikki Rios FolmerGamblin Profits16.314208
11/3/13Open3D50thJessica NalderCrown16.321244
11/3/13Open3D51stTara BeardenWMB Cash for injun16.32310
11/3/13Open3D52&53Becky SouthlandSassy16.32531
11/3/13Open3D52&53Nancy HeathThe Jewelist16.325143
11/3/13Open3D54thBekkie CakericeWinnies Reds Kai16.3383
11/3/13Open3D55thScamper ColeWoodys Wild Kiss16.342227
11/3/13Open4D1stBayli GregoryBurberry16.368$303.23200
11/3/13Open4D2ndBrynn DenneyCause Sheza Rebel16.370$252.6981
11/3/13Open4D3rdJana GuthrieTwisted Sister16.391$214.7868
11/3/13Open4D4thGretchen GoedekenFine Whatever16.404$164.25257
11/3/13Open4D5thAnna OberlinMiss Moonbug Flint16.405$126.3442
11/3/13Open4D6thTianti CarterCowboy16.407$88.44201
11/3/13Open4D7thDee TuckerDiva16.415$63.17108
11/3/13Open4D8thElaine BigbeeTurfs Sugar Lady16.419$50.54116
11/3/13Open4D9thKaren DavisWildfire16.490266
11/3/13Open4D10thStephanie FryarOne Tough Hero16.500233
11/3/13Open4D11thTara BeardenPerks Native Victory16.54877
11/3/13Open4D12thMiki SolbergCJS Fancy Doll16.560111
11/3/13Open4D13thLynn SaundersSophie16.56536
11/3/13Open4D14thVicki RochesterStix16.56747
11/3/13Open4D15thSelina NannyBubba Mel16.56993
11/3/13Open4D16thCasi GuessRey Guns Smoke16.58950
11/3/13Open4D17thMichelle RobinsonNice Smooth Diamond16.621216
11/3/13Open4D18thCharmaine NewkirkFrenchmans Madam Bella16.638222
11/3/13Open4D19thWhitney FisherBB French N Easy16.66533
11/3/13Open4D20thKelly SpeerMaxed Out Again16.68656
11/3/13Open4D21stChandler FletcherTeardrop Surprise16.70070
11/3/13Open4D22ndSydney HarrisChina King Bandicoot16.70224
11/3/13Open4D23rdAnne ScottGrays Jay Tee16.711195
11/3/13Open4D24thJeaneal PresleyAdios Cosmos16.744133
11/3/13Open4D25thLibby GaleSpins Image16.749150
11/3/13Open4D26thShelby HumphreysCashin Docs Taxes16.758232
11/3/13Open4D27thLauren HinojosaStoreme Some Cash16.780138
11/3/13Open4D28&29Missy LeonardoHonors Sharp Star16.78329
11/3/13Open4D28&29Nitzana SolbergTucker16.783110
11/3/13Open4D30thGloria FurrhQuickory Charge16.86576
11/3/13Open5D1stJana GuthrieUnbridled Memories16.966$253.14102
11/3/13Open5D2ndErin JonesHarris Dream16.995$210.95130
11/3/13Open5D3rdChristmas MooneyMojo17.006$179.3153
11/3/13Open5D4thEileen WallA Magic Storm17.013$137.1279
11/3/13Open5D5thChristmas MooneyStraw Hat Special17.075$105.48114
11/3/13Open5D6thKaitlin MiestchovichMK Superboots17.081$73.83103
11/3/13Open5D7thJennifer SkinnerCrown Royal Rockstar17.107$52.74197
11/3/13Open5D8thJennifer SkinnerMiss Smokem Freckles17.135$42.19149
11/3/13Open5D9thKaren HolmesScooby17.3159
11/3/13Open5D10thJens RudibaughPaint me Pokey17.32196
11/3/13Open5D11thSelina NannyScout17.38611
11/3/13Open5D12thLauren TurkActs Belle Brita17.40045
11/3/13Open5D13thChris HamblinRed Skysat Night17.43686
11/3/13Open5D14thLeslie GillyAlmosta threechick17.45573
11/3/13Open5D15thKaren RegoEchos Runaway Bay17.48030
11/3/13Open5D16thMelanie SelfOle Mans Aloha17.788115
11/3/13Open5D17thHaley ThorneScooter17.8132
11/3/13Open5D18thAnnie FloryStockton17.86620
11/3/13Open5D19thAlexis Ray LynchAshes17.89614
11/3/13Open5D20thLacy MatthewsMF Streakin budlight18.03966
11/3/13Open5D21stBekkie CakericeOne Dance18.91149
11/3/13Open5D22ndTandra WoodardSans Wind DJ18.94538
11/3/13Open5D23rdRyanne MaxwellHandsome19.288215
11/3/13Open5D24thChristy KreiterReba20.310255
11/3/13OpenN/TTeresa BuschSun Kickapoo Outta Yount7
11/3/13OpenN/TCorbin PinyanMiss Papa Reednt59
11/3/13OpenN/TSherry MlakarJess Datingnt105
11/3/13OpenN/TCathy Cahillnt107
11/3/13OpenN/TCrystal WillisLeroynt113
11/3/13OpenN/TTy HeathDirty Girlnt119
11/3/13OpenN/TJennifer ShoemakeCash Hunornt127
11/3/13OpenN/TLorena SherlockBTB Star B Driftennt146
11/3/13OpenN/TCallee WellingZippynt152
11/3/13OpenN/TCatherine ThompsonDizzy Moon Expressnt177
11/3/13OpenN/TBeverly BoggsFrench Tuff Wondernt181
11/3/13OpenN/TSadye SimpsonSquirtnt277
11/3/13OpenN/TTauna BertschHandynt15.095142
11/3/13OpenN/TKen EnglishBS Merri Me Famousnt15.12667
11/3/13OpenN/TKelly AllenHeza Cocky Catnt15.140231
11/3/13OpenN/TStephanie HarrisRunnin for Honorsnt15.262145
11/3/13OpenN/TChris HamblinAg Johnny Fament15.264169
11/3/13OpenN/TRylee HardinSA Velvet Dual Pepnt15.346159
11/3/13OpenN/TMindy YoungSpudnt15.356198
11/3/13OpenN/TMelanie SmithBuilt Woody Toughnt15.359225
11/3/13OpenN/TBarrie SmithTripnt15.372221
11/3/13OpenN/TDerece JonesDragon Flament15.42698
11/3/13OpenN/TCallie DavenportFames Golden Ticketnt15.433218
11/3/13OpenN/TMacee SteiglederOn The Red Pennynt15.45664
11/3/13OpenN/TLori MarshFrenchmans Lucy Lount15.48457
11/3/13OpenN/TKaci SmithNtichinent15.491323
11/3/13OpenN/TKaci SmithRebs Signaturent15.520240
11/3/13OpenN/TTerri VesterFancy for a Dollarnt15.592178
11/3/13OpenN/TAmye CraigFabulous Flitnwondernt15.648153
11/3/13OpenN/TJanci HannenMade in Chinant15.708211
11/3/13OpenN/TRoxie TewBest Credit my Feathersnt15.720128
11/3/13OpenN/TWendy SuhnShe B Astreakinnt15.72918
11/3/13OpenN/TCourtney Mae FleetNon Stop Nicknt15.75399
11/3/13OpenN/TGinger BillingsleyRicochetnt15.803247
11/3/13OpenN/TNicole StagemanThis Chick Digs Itnt15.88015
11/3/13OpenN/TAmye CraigKN Fabulous Breezent15.89390
11/3/13OpenN/TMary RobertsCharlient15.922256
11/3/13OpenN/TKrista LucasHand off my Streakernt15.98637
11/3/13OpenN/TKortni McConnellPanhandle Perksnt15.992101
11/3/13OpenN/TEmily EfurdPerks Alive N 75nt16.019238
11/3/13OpenN/TCaitlyn MaxwellWorks for Perksnt16.06341
11/3/13OpenN/TCharmaine NewkirkRoping the Cashnt16.091162
11/3/13OpenN/TCallie DavenportTBR Bootcampnt16.103267
11/3/13OpenN/TLeesa JohnsonJack's Martinint16.10554
11/3/13OpenN/TSierra ZowaderFrenchmans Winnin Numbernt16.144239
11/3/13OpenN/TKim UlbrichtCorona N Cashnt16.194155
11/3/13OpenN/TCatherine ThompsonCash N Quioxte Lynxnt16.21278
11/3/13OpenN/THolly SmithDot Texas Stylent16.21888
11/3/13OpenN/TTianti CarterWillient16.260252
11/3/13OpenN/TCheyenne DavisRP Lena Pepnt16.302261
11/3/13OpenN/TAlicia ChildersTibbittnt16.463168
11/3/13OpenN/TKristin DormanSS Sunday Sunrisent16.489237
11/3/13OpenN/TDenny RallsShinent16.49532
11/3/13OpenN/THolly SmithPick up the Coronant16.528132
11/3/13OpenN/TEileen WallA Mity Heartnt16.53821
11/3/13OpenN/TTasha WelshSadies Slick Chicknt16.631154
11/3/13OpenN/TJennifer AbbottShakem Otis 123nt16.710166
11/3/13OpenN/TAlicia JonesTurbo Toolnt16.733254
11/3/13OpenN/TMadison ReichGusnt16.744170
11/3/13OpenN/TDeborah BaxleyCodynt16.80822
11/3/13OpenN/TJennifer CurrieSmartest Glo Chicknt17.147213
11/3/13OpenN/TReagan MaplesSusient17.284179
11/3/13OpenN/TNancy GreenMr JB 0727nt17.538187
11/3/13OpenN/TDonna BethkeHappy Star Rosent17.645248
11/3/13OpenN/TSpring PenningtonPistolnt17.991246
11/3/13OpenN/TAlexis Ray LynchJessent18.21287
11/3/13OpenN/TReagan MaxwellThumpernt18.248209
11/3/13OpenN/TMegan VincikHoldin on Ta Fament18.471141
11/3/13OpenN/TBrooke HickeyTriggernt18.570205
11/3/13OpenN/TTeresa FergusonSpeedynt18.83935
11/3/13OpenN/TMegan MeadowsPawnshopSCR74
11/3/13OpenN/TStacy MillerKatSCR165
11/3/13Youth1D1stHanna HammondFrenchmans Jeenyus15.12$72.0044
11/3/13Youth1D2ndHanna HammondRT Shadow15.261$48.00134
11/3/13Youth1D3rdJana GuthrieRedemeer Honeydew15.269156
11/3/13Youth1D4thPatton Ann LynchJackie Joe Wells15.43771
11/3/13Youth1D5thLena WhiteheadCodys Chilly Nite15.478185
11/3/13Youth2D1stSadye SimpsonRingo15.642$72.00234
11/3/13Youth2D2ndCassidy RhodenCastiron Starlite15.679$48.00135
11/3/13Youth2D3rdPatton Ann LynchTari Joe Rein15.7775
11/3/13Youth2D4thAlyssa ClayCardinal of the Kremiln15.862121
11/3/13Youth2D5thAubry HollifieldM2 Colonel Shadow15.926136
11/3/13Youth2D6thAutumn WoodruffWaggoner Wood15.987151
11/3/13Youth2D7thJaydenn HeathTop Sonny Wrangler16.04191
11/3/13Youth3D1stCarli ReynoldsBrazos Moonlit Blaze16.227$72.00118
11/3/13Youth3D2ndBayli GregoryBurberry16.368$48.00200
11/3/13Youth3D3rdJana GuthrieTwisted Sister16.39168
11/3/13Youth3D4thTianti CarterCowboy16.407201
11/3/13Youth3D5thMiki SolbergCJS Fancy Doll16.56111
11/3/13Youth3D6thChandler FletcherTeardrop Surprise16.770
11/3/13Youth3D7thLauren HinojosaStoreme Some Cash16.78138
11/3/13Youth3D8thNitzana SolbergTucker16.783110
11/3/13Youth3D9thJana GuthrieUnbridled Memories16.966102
11/3/13Youth4D1stAlexis Ray LynchAshes17.896$120.0014
11/3/13YouthN/TCorbin PinyanMiss Papa Reednt59
11/3/13YouthN/TRylee HardinSA Velvet Dual Pepnt15.346159
11/3/13YouthN/TCallie DavenportFames Golden Ticketnt15.433218
11/3/13YouthN/TMacee SteiglederOn The Red Pennynt15.45664
11/3/13YouthN/TMadison ReichGusnt16.744170
11/3/13YouthN/TAlexis Ray LynchJessent18.21287
11/3/13YouthN/TBrooke HickeyTriggernt18.570205
11/3/13YouthN/TTianti CarterWillient16.260252
11/3/13YouthN/TCallie DavenportTBR Bootcampnt16.103267
11/3/13YouthN/TSadye SimpsonSquirtnt277
11/3/13Adult1D1stMolli MontgomeryRoyal & Famous15.105$49.5092
11/3/13Adult1D2ndBrittany JonesHeart Throbs Dream15.257$33.00207
11/3/13Adult1D3rdMolli MontgomeryHe Loves Cash15.27060
11/3/13Adult1D4thNicole RiggleShoeless Joe Biankus15.464259
11/3/13Adult1D5thSusan CampbellBills Irish Whiskey15.480123
11/3/13Adult1D6thKelly TovarGrateful Dude15.53172
11/3/13Adult1D7thKelly AllenFirewater Edition15.597157
11/3/13Adult2D1stDeven RigginsEyemora15.724$49.5023
11/3/13Adult2D2ndKellen FreundTinky's Blushing15.802$33.00139
11/3/13Adult3D1stElizabeth ScottCW Duallys My Dad16.145$49.50190
11/3/13Adult3D2ndJennifer AbbottWendell Jackson16.173$33.00144
11/3/13Adult3D3rdMandi BoedekerMr JB082916.19748
11/3/13Adult3D4thNikki Rios FolmerGamblin Profits16.314208
11/3/13Adult3D5thBrynn DenneyCause Sheza Rebel16.37081
11/3/13Adult3D6thStephanie FryarOne Tough Hero16.500233
11/3/13Adult3D7thKelly SpeerMaxed Out Again16.68656
11/3/13Adult4D1stJens RudibaughPaint me Pokey17.321$82.5096
11/3/13AdultN/TTy HeathDirty Girlnt119
11/3/13AdultN/TKelly AllenHeza Cocky Catnt15.140231
11/3/13AdultN/TCatherine ThompsonCash N Quioxte Lynxnt16.21278
11/3/13AdultN/TCheyenne DavisRP Lena Pepnt16.302261
11/3/13AdultN/TJennifer AbbottShakem Otis 123nt16.710166
11/3/13Senior1D1stTodd BurgerSailors Wing15.103$73.13161
11/3/13Senior1D2ndCheryl BarronMr Jack 16915.144$43.8816
11/3/13Senior1D3rdTamet GouldThe Final Donut15.305$29.25106
11/3/13Senior1D4thRegenia BoothChesters Blue Boy15.45851
11/3/13Senior1D5thTammi FillingimHAH Rodeo Man15.50634
11/3/13Senior1D6thAmye CraigTuffs Flint15.557196
11/3/13Senior1D7thLeesa JohnsonChamp's Best Money15.582137
11/3/13Senior2D1stJana KuroskyM an M Rare Fol15.626$73.1343
11/3/13Senior2D2ndJenna Beth BlairKing of Money Too15.764$43.88125
11/3/13Senior2D3rdTracy HendersonMo Betta Blues15.825$29.25194
11/3/13Senior2D4thTammy NailSpect O Wonder15.96839
11/3/13Senior2D5thTodd BurgerCharcole Ette15.987191
11/3/13Senior2D6thElaine BigbeeSunny on Command16.02863
11/3/13Senior2D7thTamet GouldLucky Jet Wars16.09746
11/3/13Senior2D8thKimberly MarshallSassy16.09928
11/3/13Senior3D1stJanice StephensFreckles Tiger Tab16.127$73.1313
11/3/13Senior3D2ndTeresa McClendonBailey Doc Malbec16.154$43.88140
11/3/13Senior3D3rdJana KuroskyHat Si Haidan Watch16.189$29.2589
11/3/13Senior3D4thGlenda ThompsonKCPassum up Firewater16.22062
11/3/13Senior3D5thLindy BledsueSandy Stones16.308251
11/3/13Senior3D6thElaine BigbeeTurfs Sugar Lady16.419116
11/3/13Senior3D7thKaren DavisWildfire16.490266
11/3/13Senior3D8thAnne ScottGrays Jay Tee16.711195
11/3/13Senior3D9thMissy LeonardoHonors Sharp Star16.78329
11/3/13Senior3D10thGloria FurrhQuickory Charge16.86576
11/3/13Senior4D1stChris HamblinRed Skysat Night17.436$87.7586
11/3/13Senior4D2ndMelanie SelfOle Mans Aloha17.788$58.50115
11/3/13SeniorN/TCathy Cahillnt107
11/3/13SeniorN/TKen EnglishBS Merri Me Famousnt15.12667
11/3/13SeniorN/TStephanie HarrisRunnin for Honorsnt15.262145
11/3/13SeniorN/TChris HamblinAg Johnny Fament15.264169
11/3/13SeniorN/TAmye CraigFabulous Flitnwondernt15.648153
11/3/13SeniorN/TGinger BillingsleyRicochetnt15.803247
11/3/13SeniorN/TAmye CraigKN Fabulous Breezent15.89390
11/3/13SeniorN/TLeesa JohnsonJack's Martinint16.10554
11/3/13SeniorN/TKim UlbrichtCorona N Cashnt16.194155
11/3/13SeniorN/TDenny RallsShinent16.49532
11/3/13SeniorN/TAlicia JonesTurbo Toolnt16.733254
AVGOpen1D1stWendy SuhnFame On the Rock15.07584
AVGOpen1D2ndMolli MontgomeryHe Loves Cash15.15160
AVGOpen1D3rdBrittany JonesHeart Throbs Dream15.155207
AVGOpen1D4thCheryl BarronMr Jack 16915.16116
AVGOpen1D5thMolli MontgomeryRoyal & Famous15.23192
AVGOpen1D6thTodd BurgerSailors Wing15.266161
AVGOpen1D7thShambrae WilliamsFallon's Pallenque15.28552
AVGOpen1D8thTara SchroedterPerkszilla15.289124
AVGOpen1D9thHanna HammondFrenchmans Jeenyus15.29244
AVGOpen1D10thJordon BriggsShake it Frenchie15.340203
AVGOpen1D11thJana GuthrieRedemeer Honeydew15.351156
AVGOpen1D12thRobin KingCoolatta Rum Bar15.355109
AVGOpen1D13thRegenia BoothChesters Blue Boy15.36251
AVGOpen1D14thJordon BriggsHBS Mayan Gold15.423253
AVGOpen1D15thLena WhiteheadCodys Chilly Nite15.426185
AVGOpen1D16thHeather LewisLil Blu Diamond15.4418
AVGOpen1D17thWhitney GodinezRenegade Leader15.443217
AVGOpen1D18thCambra SmithKatie15.46112
AVGOpen1D19thHanna HammondRT Shadow15.488134
AVGOpen1D20thErin ReichEMW Cruisin Nick15.497212
AVGOpen1D21stTamet GouldThe Final Donut15.498106
AVGOpen1D22ndSammi DuncanCricket15.50480
AVGOpen1D23rdAmye CraigTuffs Flint15.510196
AVGOpen1D24thMaggie UptonFlaming Fire Water15.514173
AVGOpen1D25thTaylor SimpsonBC Cold as Ice15.523206
AVGOpen1D26thSara ReddenMaster Jimmy15.5526
AVGOpen1D27thGeorgia MorrisWaterbug In the Bayou15.554129
AVGOpen1D28thErin ReichQuantro Jet15.563262
AVGOpen1D29thSusan CampbellBills Irish Whiskey15.566123
AVGOpen1D30thHaley ThorneSuperfly15.57019
AVGOpen2D1stVirgina YoungTiny Bit O Frost15.576122
AVGOpen2D2ndDeven RigginsEyemora15.59823
AVGOpen2D3rdJanci HannenPeppy San Chico Boy15.607160
AVGOpen2D4thKelly AllenFirewater Edition15.648157
AVGOpen2D5thMichelle RobinsonHobby Boss Moon15.651183
AVGOpen2D6thTammi FillingimHAH Rodeo Man15.65734
AVGOpen2D7thPatton Ann LynchTari Joe Rein15.6745
AVGOpen2D8thJessica HarrisRoyal China Gold15.67827
AVGOpen2D9thKellen FreundTinky's Blushing15.686139
AVGOpen2D10thWhitney GodinezSLR Swing Grace15.695258
AVGOpen2D11thBillie Ann SextonBarny15.710214
AVGOpen2D12thMaggie UptonBit of Flame An Fire15.72494
AVGOpen2D13thStephanie SnazukFly15.735112
AVGOpen2D14thCassidy RhodenCastiron Starlite15.750135
AVGOpen2D15thHolly SieperdaHank Yellow Fuel15.75365
AVGOpen2D16thLisa WellingMr Apache Dash15.757182
AVGOpen2D17thJenna Beth BlairKing of Money Too15.760125
AVGOpen2D18thLeesa JohnsonChamp's Best Money15.762137
AVGOpen2D19thHaley ThorneBandit15.8271
AVGOpen2D20thLibby GaleAR Cowboy Up15.830202
AVGOpen2D21stIvy HurstHoly Exclusive Leo15.837184
AVGOpen2D22ndAlyssa ClayCardinal of the Kremiln15.843121
AVGOpen2D23rdLeshia KnoxFrog's A Flying15.84326
AVGOpen2D24thTodd BurgerCharcole Ette15.849191
AVGOpen2D25thTasha WelshRTF Easy on my Heart15.856100
AVGOpen2D26thTasha WelshSadies Dashers Delbert15.870171
AVGOpen2D27thDakota LongJazboo15.878147
AVGOpen2D28thJaycie DavisonSkeeter15.885228
AVGOpen2D29thPeggy HallButler15.888199
AVGOpen2D30thTasha WelshFishin Fast15.932192
AVGOpen2D31stDee TuckerHollywood15.968176
AVGOpen2D32ndAubry HollifieldM2 Colonel Shadow15.976136
AVGOpen2D33rdJanice StephensFreckles Tiger Tab15.98013
AVGOpen2D34thPriscilla EstesShawnee16.005189
AVGOpen2D35thAutumn WoodruffWaggoner Wood16.018151
AVGOpen2D36thElaine BigbeeSunny on Command16.04063
AVGOpen2D37thElizabeth ScottCW Duallys My Dad16.055190
AVGOpen3D1stTamet GouldLucky Jet Wars16.07846
AVGOpen3D2ndBrigitte BarbierNo Show Roany16.09361
AVGOpen3D3rdJennifer AbbottWendell Jackson16.093144
AVGOpen3D4thTeresa McClendonBailey Doc Malbec16.100140
AVGOpen3D5thSara DavidsonRattle me Too16.115117
AVGOpen3D6thAshley SouthardRingo16.120175
AVGOpen3D7thHeidy SieperdaSinfully Sassy16.13097
AVGOpen3D8thKimberly MarshallSassy16.15828
AVGOpen3D9thCassandra HairstonZans Diamond Sunray16.16825
AVGOpen3D10thLacy MatthewsIts Best16.176126
AVGOpen3D11thGlenda ThompsonKCPassum up Firewater16.19462
AVGOpen3D12thCarli ReynoldsBrazos Moonlit Blaze16.197118
AVGOpen3D13thCourtney WorthingtonRosie O Bubbles16.212174
AVGOpen3D14thGlenda ThompsonKC Firewater Star16.228104
AVGOpen3D15thTara BeardenWMB Cash for injun16.24210
AVGOpen3D16thDee TuckerBugsy16.24758
AVGOpen3D17thJessica NalderCrown16.264244
AVGOpen3D18thTasha WelshSadies Too Many Shoes16.264120
AVGOpen3D19thTracy HendersonMo Betta Blues16.273194
AVGOpen3D20thEmber StewartShaedons Dasher16.283210
AVGOpen3D21stChandler FletcherTeardrop Surprise16.35270
AVGOpen3D22ndMichelle RobinsonNice Smooth Diamond16.365216
AVGOpen3D23rdBecky SouthlandSassy16.38031
AVGOpen3D24thKristin DormanStormy16.388193
AVGOpen3D25thBayli GregoryBurberry16.421200
AVGOpen3D26thLynn SaundersSophie16.46736
AVGOpen3D27thSelina NannyBubba Mel16.49393
AVGOpen3D28thBrynn DenneyCause Sheza Rebel16.54281
AVGOpen3D29thElaine BigbeeTurfs Sugar Lady16.562116
AVGOpen3D30thTerri VesterThe Nick of Tyme16.56683
AVGOpen4D1stCasi GuessRey Guns Smoke16.58450
AVGOpen4D2ndStephanie SnazukSwagger16.595158
AVGOpen4D3rdJeaneal PresleyAdios Cosmos16.617133
AVGOpen4D4thCharmaine NewkirkFrenchmans Madam Bella16.653222
AVGOpen4D5thTianti CarterCowboy16.659201
AVGOpen4D6thErin JonesHarris Dream16.662130
AVGOpen4D7thBrigitte BarbierThree Jack Hancock16.663131
AVGOpen4D8thDee TuckerDiva16.689108
AVGOpen4D9thGretchen GoedekenFine Whatever16.717257
AVGOpen4D10thAnne ScottGrays Jay Tee16.812195
AVGOpen4D11thJordon BriggsA Special Colour16.862164
AVGOpen4D12thNitzana SolbergTucker16.866110
AVGOpen4D13thSydney HarrisChina King Bandicoot16.92024
AVGOpen4D14thGloria FurrhQuickory Charge16.94876
AVGOpen4D15thEileen WallA Magic Storm16.99679
AVGOpen5D1stLauren HinojosaStoreme Some Cash17.157138
AVGOpen5D2ndKaitlin MiestchovichMK Superboots17.238103
AVGOpen5D3rdKaren HolmesScooby17.3159
AVGOpen5D4thSelina NannyScout17.34111
AVGOpen5D5thJennifer SkinnerMiss Smokem Freckles17.372149
AVGOpen5D6thKaren RegoEchos Runaway Bay17.43030
AVGOpen5D7thAnnie FloryStockton17.43320
AVGOpen5D8thChris HamblinRed Skysat Night17.58886
AVGOpen5D9thLacy MatthewsMF Streakin budlight17.69566
AVGOpen5D10thLeslie GillyAlmosta threechick17.87373
AVGOpen5D11thMelanie SelfOle Mans Aloha17.947115
AVGOpen5D12thLindy BledsueSandy Stones18.117251
AVGOpen5D13thTandra WoodardSans Wind DJ18.59438
AVGOpen5D14thChristy KreiterReba18.916255
Total Payout$21,493.86